contact:dominique.lefevre@mio.osupytheas.fr, maurice.libes@osupytheas.fr, didier.mallarino@osupytheas.fr
Project:EMSO http://www.emso-fr.org/EMSO-France
Depth: 2436.0 m
Title:EMSO Ligure Ouest : Data MII capteur CSTAR
DateTime,Latitude,Longitude,Instrument_Serial,Reference_Counts,Signal_Counts,Corrected_Signal_raw_counts,Calculated_Beam_c_inverse_meters,Internal_thermistor_counts
DateTime,Latitude,Longitude,Instrument_Serial,Reference_Counts,Signal_Counts,Corrected_Signal_raw_counts,Calculated_Beam_c_inverse_meters,Internal_thermistor_counts
2019-09-21T00:02:16,42.805,6.029,CST-1368DR,7934,11108,15381,0.061,551
2019-09-21T00:05:17,42.805,6.029,CST-1368DR,7934,11106,15377,0.062,551
2019-09-21T00:08:19,42.805,6.029,CST-1368DR,7934,11108,15381,0.061,551
2019-09-21T00:11:21,42.805,6.029,CST-1368DR,7934,11107,15379,0.061,551
2019-09-21T00:14:22,42.805,6.029,CST-1368DR,7934,11108,15381,0.061,551
2019-09-21T00:17:24,42.805,6.029,CST-1368DR,7934,11107,15380,0.061,551
2019-09-21T00:20:26,42.805,6.029,CST-1368DR,7934,11107,15380,0.061,551
2019-09-21T00:23:27,42.805,6.029,CST-1368DR,7934,11107,15379,0.061,551
2019-09-21T00:26:29,42.805,6.029,CST-1368DR,7934,11107,15379,0.061,551
2019-09-21T00:29:30,42.805,6.029,CST-1368DR,7934,11108,15381,0.061,550
2019-09-21T00:32:32,42.805,6.029,CST-1368DR,7934,11108,15381,0.061,551
2019-09-21T00:35:34,42.805,6.029,CST-1368DR,7934,11108,15380,0.061,551
2019-09-21T00:38:36,42.805,6.029,CST-1368DR,7934,11108,15380,0.061,551
2019-09-21T00:41:37,42.805,6.029,CST-1368DR,7934,11108,15381,0.061,551
2019-09-21T00:44:39,42.805,6.029,CST-1368DR,7934,11108,15380,0.061,551
2019-09-21T00:47:41,42.805,6.029,CST-1368DR,7934,11106,15377,0.062,551
2019-09-21T00:50:42,42.805,6.029,CST-1368DR,7934,11106,15377,0.062,551
2019-09-21T00:53:44,42.805,6.029,CST-1368DR,7934,11108,15380,0.061,551
2019-09-21T00:56:45,42.805,6.029,CST-1368DR,7934,11106,15378,0.061,551
2019-09-21T00:59:47,42.805,6.029,CST-1368DR,7934,11107,15380,0.061,551
2019-09-21T01:02:49,42.805,6.029,CST-1368DR,7934,11107,15380,0.061,550
2019-09-21T01:05:50,42.805,6.029,CST-1368DR,7934,11108,15381,0.061,551
2019-09-21T01:08:52,42.805,6.029,CST-1368DR,7934,11107,15379,0.061,551
2019-09-21T01:11:54,42.805,6.029,CST-1368DR,7934,11105,15377,0.062,551
2019-09-21T01:14:55,42.805,6.029,CST-1368DR,7934,11107,15379,0.061,551
2019-09-21T01:17:57,42.805,6.029,CST-1368DR,7934,11107,15379,0.061,551
2019-09-21T01:20:59,42.805,6.029,CST-1368DR,7934,11106,15378,0.061,551
2019-09-21T01:24:00,42.805,6.029,CST-1368DR,7934,11109,15382,0.060,551
2019-09-21T01:27:02,42.805,6.029,CST-1368DR,7934,11106,15377,0.062,551
2019-09-21T01:30:04,42.805,6.029,CST-1368DR,7934,11104,15375,0.062,551
2019-09-21T01:33:05,42.805,6.029,CST-1368DR,7934,11103,15374,0.062,550
2019-09-21T01:36:07,42.805,6.029,CST-1368DR,7934,11105,15376,0.062,551
2019-09-21T01:39:09,42.805,6.029,CST-1368DR,7934,11107,15380,0.061,551
2019-09-21T01:42:10,42.805,6.029,CST-1368DR,7934,11106,15378,0.061,551
2019-09-21T01:45:12,42.805,6.029,CST-1368DR,7934,11107,15379,0.061,551
2019-09-21T01:48:14,42.805,6.029,CST-1368DR,7934,11107,15380,0.061,551
2019-09-21T01:51:15,42.805,6.029,CST-1368DR,7934,11108,15380,0.061,551
2019-09-21T01:54:17,42.805,6.029,CST-1368DR,7934,11108,15380,0.061,551
2019-09-21T01:57:19,42.805,6.029,CST-1368DR,7934,11107,15380,0.061,551
2019-09-21T02:00:20,42.805,6.029,CST-1368DR,7934,11107,15379,0.061,551
2019-09-21T02:03:22,42.805,6.029,CST-1368DR,7934,11106,15378,0.061,551
2019-09-21T02:06:24,42.805,6.029,CST-1368DR,7934,11106,15378,0.061,551
2019-09-21T02:09:25,42.805,6.029,CST-1368DR,7934,11106,15377,0.062,551
2019-09-21T02:12:27,42.805,6.029,CST-1368DR,7934,11106,15378,0.061,551
2019-09-21T02:15:29,42.805,6.029,CST-1368DR,7934,11105,15377,0.062,551
2019-09-21T02:18:30,42.805,6.029,CST-1368DR,7934,11107,15380,0.061,551
2019-09-21T02:21:32,42.805,6.029,CST-1368DR,7934,11105,15376,0.062,551
2019-09-21T02:24:34,42.805,6.029,CST-1368DR,7934,11107,15380,0.061,551
2019-09-21T02:27:35,42.805,6.029,CST-1368DR,7934,11107,15380,0.061,551
2019-09-21T02:30:37,42.805,6.029,CST-1368DR,7934,11108,15380,0.061,551
2019-09-21T02:33:39,42.805,6.029,CST-1368DR,7934,11108,15380,0.061,551
2019-09-21T02:36:40,42.805,6.029,CST-1368DR,7934,11109,15382,0.060,551
2019-09-21T02:39:42,42.805,6.029,CST-1368DR,7934,11108,15381,0.061,551
2019-09-21T02:42:43,42.805,6.029,CST-1368DR,7934,11107,15379,0.061,551
2019-09-21T02:45:45,42.805,6.029,CST-1368DR,7933,11109,15383,0.060,551
2019-09-21T02:48:47,42.805,6.029,CST-1368DR,7934,11108,15381,0.061,551
2019-09-21T02:51:49,42.805,6.029,CST-1368DR,7933,11106,15380,0.061,551
2019-09-21T02:54:50,42.805,6.029,CST-1368DR,7933,11106,15379,0.061,551
2019-09-21T02:57:52,42.805,6.029,CST-1368DR,7933,11108,15382,0.060,551
2019-09-21T03:00:54,42.805,6.029,CST-1368DR,7933,11105,15378,0.061,551
2019-09-21T03:03:55,42.805,6.029,CST-1368DR,7933,11106,15380,0.061,551
2019-09-21T03:06:57,42.805,6.029,CST-1368DR,7933,11105,15378,0.061,551
2019-09-21T03:09:59,42.805,6.029,CST-1368DR,7933,11108,15382,0.060,550
2019-09-21T03:13:00,42.805,6.029,CST-1368DR,7933,11108,15382,0.060,551
2019-09-21T03:16:02,42.805,6.029,CST-1368DR,7933,11105,15378,0.061,551
2019-09-21T03:19:04,42.805,6.029,CST-1368DR,7933,11108,15382,0.060,551
2019-09-21T03:22:05,42.805,6.029,CST-1368DR,7933,11108,15382,0.060,551
2019-09-21T03:25:07,42.805,6.029,CST-1368DR,7933,11106,15380,0.061,551
2019-09-21T03:28:09,42.805,6.029,CST-1368DR,7933,11110,15385,0.060,550
2019-09-21T03:31:10,42.805,6.029,CST-1368DR,7933,11109,15384,0.060,550
2019-09-21T03:34:12,42.805,6.029,CST-1368DR,7933,11105,15378,0.061,551
2019-09-21T03:37:14,42.805,6.029,CST-1368DR,7933,11108,15382,0.060,550
2019-09-21T03:40:15,42.805,6.029,CST-1368DR,7933,11107,15381,0.061,551
2019-09-21T03:43:17,42.805,6.029,CST-1368DR,7933,11108,15382,0.060,551
2019-09-21T03:46:19,42.805,6.029,CST-1368DR,7933,11108,15382,0.060,551
2019-09-21T03:49:20,42.805,6.029,CST-1368DR,7933,11108,15382,0.060,551
2019-09-21T03:52:22,42.805,6.029,CST-1368DR,7933,11107,15381,0.061,551
2019-09-21T03:55:23,42.805,6.029,CST-1368DR,7933,11110,15385,0.060,551
2019-09-21T03:58:26,42.805,6.029,CST-1368DR,7933,11109,15383,0.060,551
2019-09-21T04:01:28,42.805,6.029,CST-1368DR,7933,11108,15383,0.060,551
2019-09-21T04:04:29,42.805,6.029,CST-1368DR,7933,11107,15381,0.061,551
2019-09-21T04:07:31,42.805,6.029,CST-1368DR,7933,11108,15382,0.060,551
2019-09-21T04:10:33,42.805,6.029,CST-1368DR,7933,11107,15381,0.061,551
2019-09-21T04:13:34,42.805,6.029,CST-1368DR,7933,11110,15385,0.060,550
2019-09-21T04:16:36,42.805,6.029,CST-1368DR,7933,11108,15382,0.060,550
2019-09-21T04:19:37,42.805,6.029,CST-1368DR,7933,11108,15383,0.060,551
2019-09-21T04:22:39,42.805,6.029,CST-1368DR,7933,11109,15384,0.060,551
2019-09-21T04:25:41,42.805,6.029,CST-1368DR,7933,11107,15381,0.061,551
2019-09-21T04:28:42,42.805,6.029,CST-1368DR,7933,11108,15383,0.060,551
2019-09-21T04:31:44,42.805,6.029,CST-1368DR,7933,11107,15381,0.061,551
2019-09-21T04:34:46,42.805,6.029,CST-1368DR,7933,11108,15383,0.060,551
2019-09-21T04:37:47,42.805,6.029,CST-1368DR,7933,11108,15383,0.060,551
2019-09-21T04:40:49,42.805,6.029,CST-1368DR,7933,11109,15384,0.060,551
2019-09-21T04:43:51,42.805,6.029,CST-1368DR,7933,11105,15378,0.061,551
2019-09-21T04:46:52,42.805,6.029,CST-1368DR,7933,11107,15381,0.061,551
2019-09-21T04:49:54,42.805,6.029,CST-1368DR,7933,11109,15383,0.060,551
2019-09-21T04:52:56,42.805,6.029,CST-1368DR,7933,11107,15381,0.061,551
2019-09-21T04:55:57,42.805,6.029,CST-1368DR,7933,11108,15382,0.060,550
2019-09-21T04:58:59,42.805,6.029,CST-1368DR,7933,11108,15382,0.060,551
2019-09-21T05:02:01,42.805,6.029,CST-1368DR,7933,11107,15381,0.061,551
2019-09-21T05:05:03,42.805,6.029,CST-1368DR,7932,11101,15375,0.062,551
2019-09-21T05:08:04,42.805,6.029,CST-1368DR,7933,11108,15383,0.060,551
2019-09-21T05:11:06,42.805,6.029,CST-1368DR,7933,11108,15382,0.060,551
2019-09-21T05:14:07,42.805,6.029,CST-1368DR,7932,11105,15380,0.061,551
2019-09-21T05:17:09,42.805,6.029,CST-1368DR,7932,11107,15383,0.060,551
2019-09-21T05:20:11,42.805,6.029,CST-1368DR,7932,11108,15384,0.060,551
2019-09-21T05:23:12,42.805,6.029,CST-1368DR,7932,11108,15384,0.060,551
2019-09-21T05:26:14,42.805,6.029,CST-1368DR,7932,11106,15382,0.060,551
2019-09-21T05:29:16,42.805,6.029,CST-1368DR,7932,11104,15378,0.061,551
2019-09-21T05:32:18,42.805,6.029,CST-1368DR,7932,11107,15383,0.060,550
2019-09-21T05:35:19,42.805,6.029,CST-1368DR,7932,11105,15380,0.061,551
2019-09-21T05:38:21,42.805,6.029,CST-1368DR,7932,11107,15383,0.060,550
2019-09-21T05:41:22,42.805,6.029,CST-1368DR,7932,11105,15380,0.061,550
2019-09-21T05:44:24,42.805,6.029,CST-1368DR,7932,11106,15381,0.061,551
2019-09-21T05:47:26,42.805,6.029,CST-1368DR,7932,11105,15380,0.061,551
2019-09-21T05:50:27,42.805,6.029,CST-1368DR,7932,11107,15383,0.060,550
2019-09-21T05:53:29,42.805,6.029,CST-1368DR,7932,11105,15380,0.061,551
2019-09-21T05:56:31,42.805,6.029,CST-1368DR,7932,11107,15383,0.060,551
2019-09-21T05:59:32,42.805,6.029,CST-1368DR,7932,11108,15384,0.060,551
2019-09-21T06:02:34,42.805,6.029,CST-1368DR,7932,10993,15225,0.101,551
2019-09-21T06:05:35,42.805,6.029,CST-1368DR,7932,11082,15348,0.069,551
2019-09-21T06:08:37,42.805,6.029,CST-1368DR,7932,11106,15382,0.060,551
2019-09-21T06:11:39,42.805,6.029,CST-1368DR,7932,11106,15382,0.060,550
2019-09-21T06:14:40,42.805,6.029,CST-1368DR,7932,11107,15383,0.060,551
2019-09-21T06:17:42,42.805,6.029,CST-1368DR,7932,11107,15383,0.060,551
2019-09-21T06:20:44,42.805,6.029,CST-1368DR,7932,11105,15379,0.061,551
2019-09-21T06:23:45,42.805,6.029,CST-1368DR,7932,11108,15384,0.060,551
2019-09-21T06:26:47,42.805,6.029,CST-1368DR,7932,11069,15330,0.074,551
2019-09-21T06:29:49,42.805,6.029,CST-1368DR,7932,11108,15384,0.060,551
2019-09-21T06:32:50,42.805,6.029,CST-1368DR,7932,11106,15381,0.061,551
2019-09-21T06:35:52,42.805,6.029,CST-1368DR,7932,11107,15383,0.060,551
2019-09-21T06:38:53,42.805,6.029,CST-1368DR,7932,11107,15383,0.060,551
2019-09-21T06:41:55,42.805,6.029,CST-1368DR,7932,11106,15382,0.060,551
2019-09-21T06:44:57,42.805,6.029,CST-1368DR,7932,11107,15383,0.060,551
2019-09-21T06:47:58,42.805,6.029,CST-1368DR,7932,11106,15382,0.060,551
2019-09-21T06:51:00,42.805,6.029,CST-1368DR,7932,11109,15385,0.060,551
2019-09-21T06:54:02,42.805,6.029,CST-1368DR,7932,11108,15384,0.060,551
2019-09-21T06:57:04,42.805,6.029,CST-1368DR,7932,11108,15384,0.060,551
2019-09-21T07:00:05,42.805,6.029,CST-1368DR,7932,11105,15380,0.061,551
2019-09-21T07:03:07,42.805,6.029,CST-1368DR,7932,11106,15381,0.061,551
2019-09-21T07:06:08,42.805,6.029,CST-1368DR,7932,11108,15384,0.060,551
2019-09-21T07:09:10,42.805,6.029,CST-1368DR,7932,11106,15382,0.060,550
2019-09-21T07:12:12,42.805,6.029,CST-1368DR,7932,11108,15384,0.060,550
2019-09-21T07:15:13,42.805,6.029,CST-1368DR,7932,11108,15385,0.060,551
2019-09-21T07:18:15,42.805,6.029,CST-1368DR,7932,11108,15384,0.060,551
2019-09-21T07:21:17,42.805,6.029,CST-1368DR,7932,11107,15383,0.060,551
2019-09-21T07:24:18,42.805,6.029,CST-1368DR,7932,11108,15384,0.060,551
2019-09-21T07:27:20,42.805,6.029,CST-1368DR,7932,11108,15384,0.060,551
2019-09-21T07:30:22,42.805,6.029,CST-1368DR,7932,11109,15385,0.060,551
2019-09-21T07:33:23,42.805,6.029,CST-1368DR,7932,11108,15384,0.060,551
2019-09-21T07:36:25,42.805,6.029,CST-1368DR,7932,11108,15385,0.060,551
2019-09-21T07:39:26,42.805,6.029,CST-1368DR,7932,11108,15384,0.060,551
2019-09-21T07:42:28,42.805,6.029,CST-1368DR,7932,11108,15385,0.060,551
2019-09-21T07:45:30,42.805,6.029,CST-1368DR,7931,11106,15383,0.060,551
2019-09-21T07:48:31,42.805,6.029,CST-1368DR,7931,11105,15381,0.061,551
2019-09-21T07:51:33,42.805,6.029,CST-1368DR,7931,11108,15385,0.060,551
2019-09-21T07:54:35,42.805,6.029,CST-1368DR,7931,11109,15387,0.059,550
2019-09-21T07:57:36,42.805,6.029,CST-1368DR,7931,11108,15385,0.060,551
2019-09-21T08:00:38,42.805,6.029,CST-1368DR,7931,11109,15387,0.059,551
2019-09-21T08:03:40,42.805,6.029,CST-1368DR,7931,11109,15387,0.059,551
2019-09-21T08:06:41,42.805,6.029,CST-1368DR,7931,11109,15387,0.059,551
2019-09-21T08:09:43,42.805,6.029,CST-1368DR,7931,11108,15386,0.059,551
2019-09-21T08:12:44,42.805,6.029,CST-1368DR,7931,11108,15386,0.059,551
2019-09-21T08:15:46,42.805,6.029,CST-1368DR,7931,11109,15387,0.059,551
2019-09-21T08:18:48,42.805,6.029,CST-1368DR,7931,11109,15387,0.059,551
2019-09-21T08:21:49,42.805,6.029,CST-1368DR,7931,11108,15385,0.060,551
2019-09-21T08:24:51,42.805,6.029,CST-1368DR,7931,11109,15387,0.059,551
2019-09-21T08:27:53,42.805,6.029,CST-1368DR,7931,11109,15388,0.059,551
2019-09-21T08:30:54,42.805,6.029,CST-1368DR,7931,11108,15386,0.059,551
2019-09-21T08:33:56,42.805,6.029,CST-1368DR,7931,11109,15387,0.059,550
2019-09-21T08:36:58,42.805,6.029,CST-1368DR,7931,11109,15387,0.059,551
2019-09-21T08:39:59,42.805,6.029,CST-1368DR,7931,11108,15385,0.060,551
2019-09-21T08:43:01,42.805,6.029,CST-1368DR,7931,11106,15383,0.060,551
2019-09-21T08:46:03,42.805,6.029,CST-1368DR,7931,11107,15385,0.060,551
2019-09-21T08:49:04,42.805,6.029,CST-1368DR,7931,11109,15387,0.059,551
2019-09-21T08:52:06,42.805,6.029,CST-1368DR,7931,11107,15385,0.060,551
2019-09-21T08:55:08,42.805,6.029,CST-1368DR,7931,11109,15387,0.059,551
2019-09-21T08:58:09,42.805,6.029,CST-1368DR,7931,11108,15386,0.059,551
2019-09-21T09:01:11,42.805,6.029,CST-1368DR,7931,11108,15386,0.059,551
2019-09-21T09:04:12,42.805,6.029,CST-1368DR,7931,11108,15386,0.059,551
2019-09-21T09:07:14,42.805,6.029,CST-1368DR,7931,11108,15385,0.060,551
2019-09-21T09:10:16,42.805,6.029,CST-1368DR,7931,11108,15386,0.059,551
2019-09-21T09:13:18,42.805,6.029,CST-1368DR,7931,11108,15386,0.059,551
2019-09-21T09:16:19,42.805,6.029,CST-1368DR,7931,11108,15385,0.060,550
2019-09-21T09:19:21,42.805,6.029,CST-1368DR,7931,11108,15386,0.059,551
2019-09-21T09:22:22,42.805,6.029,CST-1368DR,7931,11108,15386,0.059,550
2019-09-21T09:25:24,42.805,6.029,CST-1368DR,7931,11108,15386,0.059,551
2019-09-21T09:28:26,42.805,6.029,CST-1368DR,7931,11108,15386,0.059,551
2019-09-21T09:31:27,42.805,6.029,CST-1368DR,7931,11109,15387,0.059,551
2019-09-21T09:34:29,42.805,6.029,CST-1368DR,7931,11108,15386,0.059,551
2019-09-21T09:37:31,42.805,6.029,CST-1368DR,7931,11106,15383,0.060,551
2019-09-21T09:40:32,42.805,6.029,CST-1368DR,7931,11108,15386,0.059,550
2019-09-21T09:43:34,42.805,6.029,CST-1368DR,7931,11107,15385,0.060,551
2019-09-21T09:46:36,42.805,6.029,CST-1368DR,7931,11107,15385,0.060,550
2019-09-21T09:49:37,42.805,6.029,CST-1368DR,7931,11108,15386,0.059,550
2019-09-21T09:52:39,42.805,6.029,CST-1368DR,7931,11105,15382,0.060,550
2019-09-21T09:55:41,42.805,6.029,CST-1368DR,7931,11106,15383,0.060,551
2019-09-21T09:58:42,42.805,6.029,CST-1368DR,7931,11106,15383,0.060,550
2019-09-21T10:01:44,42.805,6.029,CST-1368DR,7931,11106,15384,0.060,551
2019-09-21T10:04:45,42.805,6.029,CST-1368DR,7931,11107,15385,0.060,551
2019-09-21T10:07:47,42.805,6.029,CST-1368DR,7931,11107,15385,0.060,551
2019-09-21T10:10:49,42.805,6.029,CST-1368DR,7931,11107,15385,0.060,551
2019-09-21T10:13:50,42.805,6.029,CST-1368DR,7931,11106,15383,0.060,551
2019-09-21T10:16:52,42.805,6.029,CST-1368DR,7931,11107,15385,0.060,551
2019-09-21T10:19:54,42.805,6.029,CST-1368DR,7931,11107,15385,0.060,551
2019-09-21T10:22:55,42.805,6.029,CST-1368DR,7930,11108,15387,0.059,551
2019-09-21T10:25:57,42.805,6.029,CST-1368DR,7931,11108,15386,0.059,551
2019-09-21T10:28:59,42.805,6.029,CST-1368DR,7931,11107,15385,0.060,551
2019-09-21T10:32:00,42.805,6.029,CST-1368DR,7931,11108,15386,0.059,551
2019-09-21T10:35:02,42.805,6.029,CST-1368DR,7931,11103,15378,0.061,551
2019-09-21T10:38:04,42.805,6.029,CST-1368DR,7930,11067,15331,0.074,551
2019-09-21T10:41:05,42.805,6.029,CST-1368DR,7930,11098,15373,0.063,551
2019-09-21T10:44:07,42.805,6.029,CST-1368DR,7930,11106,15385,0.060,551
2019-09-21T10:47:09,42.805,6.029,CST-1368DR,7930,11105,15384,0.060,551
2019-09-21T10:50:11,42.805,6.029,CST-1368DR,7930,11106,15385,0.060,551
2019-09-21T10:53:12,42.805,6.029,CST-1368DR,7930,11104,15383,0.060,550
2019-09-21T10:56:14,42.805,6.029,CST-1368DR,7930,11106,15385,0.060,551
2019-09-21T10:59:16,42.805,6.029,CST-1368DR,7930,11106,15385,0.060,551
2019-09-21T11:02:17,42.805,6.029,CST-1368DR,7930,11106,15385,0.060,551
2019-09-21T11:05:19,42.805,6.029,CST-1368DR,7930,11106,15385,0.060,551
2019-09-21T11:08:21,42.805,6.029,CST-1368DR,7930,11106,15384,0.060,551
2019-09-21T11:11:22,42.805,6.029,CST-1368DR,7930,11078,15347,0.070,551
2019-09-21T11:14:24,42.805,6.029,CST-1368DR,7930,11107,15386,0.059,551
2019-09-21T11:17:25,42.805,6.029,CST-1368DR,7928,11015,15262,0.092,551
2019-09-21T11:20:27,42.805,6.029,CST-1368DR,7930,11106,15384,0.060,551
2019-09-21T11:23:29,42.805,6.029,CST-1368DR,7930,11106,15385,0.060,551
2019-09-21T11:26:30,42.805,6.029,CST-1368DR,7930,11108,15387,0.059,551
2019-09-21T11:29:32,42.805,6.029,CST-1368DR,7930,11107,15386,0.059,551
2019-09-21T11:32:34,42.805,6.029,CST-1368DR,7930,11106,15385,0.060,551
2019-09-21T11:35:35,42.805,6.029,CST-1368DR,7930,11106,15385,0.060,551
2019-09-21T11:38:37,42.805,6.029,CST-1368DR,7930,11107,15386,0.059,551
2019-09-21T11:41:39,42.805,6.029,CST-1368DR,7930,11104,15382,0.060,551
2019-09-21T11:44:40,42.805,6.029,CST-1368DR,7930,11107,15386,0.059,551
2019-09-21T11:47:42,42.805,6.029,CST-1368DR,7930,11107,15386,0.059,551
2019-09-21T11:50:43,42.805,6.029,CST-1368DR,7930,11106,15384,0.060,551
2019-09-21T11:53:45,42.805,6.029,CST-1368DR,7930,11107,15386,0.059,551
2019-09-21T11:56:47,42.805,6.029,CST-1368DR,7930,11106,15384,0.060,550
2019-09-21T11:59:48,42.805,6.029,CST-1368DR,7930,11107,15386,0.059,551
2019-09-21T12:02:50,42.805,6.029,CST-1368DR,7930,11105,15384,0.060,551
2019-09-21T12:05:52,42.805,6.029,CST-1368DR,7930,11104,15382,0.060,551
2019-09-21T12:08:53,42.805,6.029,CST-1368DR,7930,11106,15384,0.060,551
2019-09-21T12:11:55,42.805,6.029,CST-1368DR,7930,11104,15382,0.060,551
2019-09-21T12:14:56,42.805,6.029,CST-1368DR,7930,11105,15384,0.060,551
2019-09-21T12:17:58,42.805,6.029,CST-1368DR,7930,11105,15383,0.060,551
2019-09-21T12:21:00,42.805,6.029,CST-1368DR,7930,11105,15383,0.060,551
2019-09-21T12:24:01,42.805,6.029,CST-1368DR,7930,11104,15383,0.060,551
2019-09-21T12:27:03,42.805,6.029,CST-1368DR,7930,11104,15383,0.060,551
2019-09-21T12:30:05,42.805,6.029,CST-1368DR,7930,11106,15385,0.060,551
2019-09-21T12:33:06,42.805,6.029,CST-1368DR,7930,11105,15383,0.060,551
2019-09-21T12:36:08,42.805,6.029,CST-1368DR,7930,11106,15385,0.060,551
2019-09-21T12:39:10,42.805,6.029,CST-1368DR,7929,11106,15387,0.059,551
2019-09-21T12:42:11,42.805,6.029,CST-1368DR,7930,11107,15386,0.059,551
2019-09-21T12:45:13,42.805,6.029,CST-1368DR,7930,11105,15383,0.060,551
2019-09-21T12:48:15,42.805,6.029,CST-1368DR,7930,11105,15384,0.060,551
2019-09-21T12:51:16,42.805,6.029,CST-1368DR,7930,11105,15383,0.060,551
2019-09-21T12:54:18,42.805,6.029,CST-1368DR,7929,11101,15380,0.061,551
2019-09-21T12:57:19,42.805,6.029,CST-1368DR,7930,11106,15384,0.060,551
2019-09-21T13:00:21,42.805,6.029,CST-1368DR,7929,11106,15387,0.059,551
2019-09-21T13:03:23,42.805,6.029,CST-1368DR,7929,11104,15383,0.060,551
2019-09-21T13:06:24,42.805,6.029,CST-1368DR,7929,11105,15386,0.059,551
2019-09-21T13:09:26,42.805,6.029,CST-1368DR,7926,10650,14760,0.226,551
2019-09-21T13:12:28,42.805,6.029,CST-1368DR,7929,11104,15384,0.060,551
2019-09-21T13:15:29,42.805,6.029,CST-1368DR,7929,11104,15384,0.060,551
2019-09-21T13:18:31,42.805,6.029,CST-1368DR,7929,11105,15385,0.060,551
2019-09-21T13:21:33,42.805,6.029,CST-1368DR,7929,11106,15386,0.059,551
2019-09-21T13:24:34,42.805,6.029,CST-1368DR,7929,11102,15381,0.061,551
2019-09-21T13:27:36,42.805,6.029,CST-1368DR,7929,11106,15387,0.059,551
2019-09-21T13:30:37,42.805,6.029,CST-1368DR,7929,11105,15385,0.060,551
2019-09-21T13:33:39,42.805,6.029,CST-1368DR,7929,11099,15377,0.062,551
2019-09-21T13:36:41,42.805,6.029,CST-1368DR,7929,11105,15386,0.059,551
2019-09-21T13:39:42,42.805,6.029,CST-1368DR,7929,11103,15383,0.060,551
2019-09-21T13:42:44,42.805,6.029,CST-1368DR,7929,11104,15384,0.060,550
2019-09-21T13:45:46,42.805,6.029,CST-1368DR,7929,11105,15386,0.059,551
2019-09-21T13:48:47,42.805,6.029,CST-1368DR,7929,11105,15385,0.060,551
2019-09-21T13:51:49,42.805,6.029,CST-1368DR,7929,11105,15386,0.059,551
2019-09-21T13:54:51,42.805,6.029,CST-1368DR,7929,11106,15387,0.059,550
2019-09-21T13:57:52,42.805,6.029,CST-1368DR,7929,11106,15387,0.059,551
2019-09-21T14:00:54,42.805,6.029,CST-1368DR,7929,11106,15386,0.059,551
2019-09-21T14:03:56,42.805,6.029,CST-1368DR,7929,11105,15385,0.060,550
2019-09-21T14:06:57,42.805,6.029,CST-1368DR,7929,11105,15386,0.059,551
2019-09-21T14:09:59,42.805,6.029,CST-1368DR,7929,11105,15386,0.059,551
2019-09-21T14:13:01,42.805,6.029,CST-1368DR,7929,11104,15383,0.060,551
2019-09-21T14:16:02,42.805,6.029,CST-1368DR,7929,11106,15386,0.059,551
2019-09-21T14:19:04,42.805,6.029,CST-1368DR,7929,11104,15384,0.060,551
2019-09-21T14:22:05,42.805,6.029,CST-1368DR,7929,11105,15386,0.059,551
2019-09-21T14:25:07,42.805,6.029,CST-1368DR,7929,11103,15382,0.060,551
2019-09-21T14:28:09,42.805,6.029,CST-1368DR,7929,11103,15382,0.060,551
2019-09-21T14:31:10,42.805,6.029,CST-1368DR,7929,11105,15385,0.060,551
2019-09-21T14:34:12,42.805,6.029,CST-1368DR,7929,11105,15385,0.060,551
2019-09-21T14:37:14,42.805,6.029,CST-1368DR,7929,11105,15385,0.060,551
2019-09-21T14:40:15,42.805,6.029,CST-1368DR,7929,11104,15384,0.060,551
2019-09-21T14:43:17,42.805,6.029,CST-1368DR,7929,11105,15386,0.059,550
2019-09-21T14:46:19,42.805,6.029,CST-1368DR,7929,11104,15383,0.060,551
2019-09-21T14:49:20,42.805,6.029,CST-1368DR,7929,11105,15385,0.060,551
2019-09-21T14:52:22,42.805,6.029,CST-1368DR,7929,11104,15384,0.060,551
2019-09-21T14:55:24,42.805,6.029,CST-1368DR,7929,11104,15384,0.060,551
2019-09-21T14:58:25,42.805,6.029,CST-1368DR,7929,11104,15383,0.060,551
2019-09-21T15:01:27,42.805,6.029,CST-1368DR,7929,11103,15383,0.060,551
2019-09-21T15:04:29,42.805,6.029,CST-1368DR,7929,11102,15382,0.060,551
2019-09-21T15:07:30,42.805,6.029,CST-1368DR,7929,11105,15385,0.060,551
2019-09-21T15:10:32,42.805,6.029,CST-1368DR,7928,11102,15382,0.060,551
2019-09-21T15:13:33,42.805,6.029,CST-1368DR,7929,11104,15384,0.060,551
2019-09-21T15:16:35,42.805,6.029,CST-1368DR,7929,11103,15382,0.060,551
2019-09-21T15:19:37,42.805,6.029,CST-1368DR,7928,11104,15386,0.059,551
2019-09-21T15:22:38,42.805,6.029,CST-1368DR,7929,11105,15385,0.060,551
2019-09-21T15:25:40,42.805,6.029,CST-1368DR,7928,11104,15386,0.059,550
2019-09-21T15:28:42,42.805,6.029,CST-1368DR,7928,11100,15380,0.061,551
2019-09-21T15:31:43,42.805,6.029,CST-1368DR,7928,11104,15386,0.059,551
2019-09-21T15:34:45,42.805,6.029,CST-1368DR,7928,11103,15384,0.060,551
2019-09-21T15:37:47,42.805,6.029,CST-1368DR,7928,11104,15386,0.059,551
2019-09-21T15:40:48,42.805,6.029,CST-1368DR,7928,11103,15384,0.060,551
2019-09-21T15:43:50,42.805,6.029,CST-1368DR,7928,11102,15382,0.060,550
2019-09-21T15:46:52,42.805,6.029,CST-1368DR,7928,11102,15384,0.060,551
2019-09-21T15:49:53,42.805,6.029,CST-1368DR,7928,11102,15384,0.060,551
2019-09-21T15:52:55,42.805,6.029,CST-1368DR,7928,11102,15383,0.060,551
2019-09-21T15:55:56,42.805,6.029,CST-1368DR,7928,11104,15386,0.059,551
2019-09-21T15:58:58,42.805,6.029,CST-1368DR,7928,11105,15387,0.059,551
2019-09-21T16:02:00,42.805,6.029,CST-1368DR,7928,11103,15384,0.060,551
2019-09-21T16:05:01,42.805,6.029,CST-1368DR,7928,11102,15384,0.060,551
2019-09-21T16:08:03,42.805,6.029,CST-1368DR,7928,11103,15384,0.060,551
2019-09-21T16:11:05,42.805,6.029,CST-1368DR,7928,11094,15372,0.063,551
2019-09-21T16:14:06,42.805,6.029,CST-1368DR,7928,11103,15385,0.060,551
2019-09-21T16:17:08,42.805,6.029,CST-1368DR,7928,11104,15385,0.060,550
2019-09-21T16:20:10,42.805,6.029,CST-1368DR,7928,11103,15384,0.060,551
2019-09-21T16:23:11,42.805,6.029,CST-1368DR,7928,11103,15385,0.060,551
2019-09-21T16:26:13,42.805,6.029,CST-1368DR,7928,11103,15384,0.060,551
2019-09-21T16:29:15,42.805,6.029,CST-1368DR,7928,11104,15386,0.059,551
2019-09-21T16:32:16,42.805,6.029,CST-1368DR,7928,11095,15374,0.062,551
2019-09-21T16:35:18,42.805,6.029,CST-1368DR,7928,11104,15385,0.060,551
2019-09-21T16:38:19,42.805,6.029,CST-1368DR,7928,11101,15382,0.060,551